Weather History for Freeport, IL

Change the Weather History Date:

Wednesday, February 6, 2013

  Actual Average Record
Temperature  
Mean Temperature 23 °F -  
Max Temperature 37 °F 25 °F 50 °F (1990)
Min Temperature 9 °F 8 °F -16 °F (1979)
Degree Days  
Heating Degree Days 42    
Moisture  
Dew Point 22 °F    
Average Humidity 84    
Maximum Humidity 90    
Minimum Humidity 77    
Precipitation  
Precipitation 0.01 in - - ()
Sea Level Pressure  
Sea Level Pressure 30.13 in    
Wind  
Wind Speed 4 mph (ESE)    
Max Wind Speed 13 mph    
Max Gust Speed -    
Visibility 8 miles    
Events      
Averages and records for this station are not official NWS values.
T = Trace of Precipitation, MM = Missing Value Source: NWS Daily Summary

Daily Weather History Graph

Daily Weather History Graph

Search for Another Location

Airport:

Trip Planner

Search our weather history database for the weather conditions in past years. The results will help you decide how hot, cold, wet, or windy it might be!

Date:

Astronomy

Feb. 06, 2013 Rise Set
Actual Time 7:05 AM CST 5:19 PM CST
Civil Twilight 6:36 AM CST 5:48 PM CST
Nautical Twilight 6:03 AM CST 6:22 PM CST
Astronomical Twilight 5:30 AM CST 6:54 PM CST
Moon 3:51 AM CST (2/6) 1:35 PM CST (2/6)
Length of Visible Light 11h 12m
Length of Day
10h 13m
Waning Crescent, 17% of the Moon is Illuminated
Feb 6
Waning Crescent
Feb 10
New
Feb 17
First Quarter
Feb 25
Full
Mar 4
Last Quarter

Hourly Weather History & Observations

Time (CST) Temp. Windchill Dew Point Humidity Pressure Visibility Wind Dir Wind Speed Gust Speed Precip Events Conditions
12:15 AM 26.8 °F - 20.3 °F 77% 30.11 in 10.0 mi Calm Calm - N/A   Overcast
12:35 AM 25.2 °F - 19.9 °F 81% 30.11 in 10.0 mi Calm Calm - N/A   Overcast
12:55 AM 24.8 °F - 19.9 °F 82% 30.12 in 10.0 mi Calm Calm - N/A   Overcast
1:15 AM 24.4 °F 18.6 °F 18.5 °F 78% 30.12 in 10.0 mi North 4.6 mph - N/A   Overcast
1:35 AM 24.8 °F - 19.4 °F 80% 30.13 in 10.0 mi Calm Calm - N/A   Overcast
1:55 AM 24.8 °F - 18.5 °F 77% 30.13 in 10.0 mi Calm Calm - N/A   Overcast
2:15 AM 23.7 °F 19.3 °F 18.1 °F 79% 30.13 in 10.0 mi North 3.5 mph - N/A   Overcast
2:35 AM 21.2 °F - 16.2 °F 81% 30.14 in 10.0 mi Calm Calm - N/A   Scattered Clouds
2:55 AM 21.9 °F - 17.2 °F 82% 30.14 in 10.0 mi Calm Calm - N/A   Clear
3:15 AM 18.5 °F - 15.1 °F 86% 30.14 in 10.0 mi Calm Calm - N/A   Clear
3:35 AM 18.5 °F - 15.3 °F 87% 30.14 in 10.0 mi Calm Calm - N/A   Clear
3:55 AM 14.7 °F 9.0 °F 11.8 °F 88% 30.14 in 10.0 mi East 3.5 mph - N/A   Clear
4:15 AM 11.1 °F 4.9 °F 8.2 °F 88% 30.14 in 7.0 mi ENE 3.5 mph - N/A   Clear
4:35 AM 9.1 °F 2.6 °F 6.4 °F 89% 30.15 in 5.0 mi ESE 3.5 mph - N/A   Clear
4:55 AM 11.7 °F - 9.1 °F 90% 30.17 in 5.0 mi Calm Calm - N/A   Clear
5:15 AM 9.3 °F 2.8 °F 6.3 °F 87% 30.17 in 5.0 mi ESE 3.5 mph - N/A   Clear
5:35 AM 9.5 °F 1.2 °F 6.3 °F 87% 30.16 in 5.0 mi ESE 4.6 mph - N/A   Clear
5:55 AM 13.6 °F 6.0 °F 10.9 °F 89% 30.15 in 7.0 mi East 4.6 mph - N/A   Clear
6:15 AM 11.1 °F 1.7 °F 8.1 °F 87% 30.16 in 5.0 mi SE 5.8 mph - N/A   Clear
6:35 AM 13.6 °F 4.6 °F 10.9 °F 89% 30.16 in 7.0 mi SE 5.8 mph - N/A   Clear
6:55 AM 13.6 °F 3.5 °F 10.6 °F 88% 30.17 in 7.0 mi SE 6.9 mph - N/A   Clear
7:15 AM 13.6 °F 2.5 °F 10.6 °F 88% 30.17 in 5.0 mi SE 8.1 mph - N/A   Clear
7:35 AM 13.6 °F 3.5 °F 10.9 °F 89% 30.19 in 7.0 mi SSE 6.9 mph - N/A   Clear
7:55 AM 13.6 °F 3.5 °F 10.6 °F 88% 30.19 in 7.0 mi SSE 6.9 mph - N/A   Clear
8:15 AM 13.6 °F 6.0 °F 10.4 °F 87% 30.19 in 7.0 mi SE 4.6 mph - N/A   Clear
8:35 AM 13.6 °F 7.7 °F 10.8 °F 88% 30.19 in 7.0 mi ESE 3.5 mph - N/A   Clear
8:55 AM 16.2 °F 7.6 °F 13.3 °F 88% 30.18 in 10.0 mi ESE 5.8 mph - N/A   Clear
9:15 AM 19.4 °F 11.5 °F 15.8 °F 86% 30.19 in 10.0 mi SE 5.8 mph - N/A   Scattered Clouds
9:35 AM 21.2 °F 13.6 °F 16.3 °F 82% 30.20 in 10.0 mi SSE 5.8 mph - N/A   Mostly Cloudy
9:55 AM 21.2 °F 14.9 °F 16.3 °F 82% 30.19 in 10.0 mi SE 4.6 mph - N/A   Scattered Clouds
10:15 AM 21.9 °F 15.7 °F 16.3 °F 79% 30.20 in 10.0 mi East 4.6 mph - N/A   Scattered Clouds
10:35 AM 23.7 °F 16.6 °F 18.3 °F 80% 30.19 in 7.0 mi East 5.8 mph - N/A   Clear
10:55 AM 23.7 °F 16.6 °F 18.1 °F 79% 30.19 in 7.0 mi ESE 5.8 mph - N/A   Clear
11:15 AM 24.6 °F 18.8 °F 18.3 °F 77% 30.20 in 7.0 mi ESE 4.6 mph - N/A   Scattered Clouds
11:35 AM 25.9 °F 20.3 °F 19.9 °F 78% 30.20 in 7.0 mi SE 4.6 mph - N/A   Scattered Clouds
11:55 AM 30.0 °F 22.4 °F 23.5 °F 77% 30.18 in 10.0 mi SSE 8.1 mph - 0.01 in   Scattered Clouds
12:15 PM 31.5 °F 24.2 °F 25.3 °F 78% 30.18 in 10.0 mi SSE 8.1 mph - N/A   Mostly Cloudy
12:35 PM 31.5 °F 25.8 °F 25.7 °F 79% 30.18 in 7.0 mi SSE 5.8 mph - N/A   Mostly Cloudy
12:55 PM 33.8 °F 26.4 °F 27.5 °F 78% 30.17 in 7.0 mi South 9.2 mph - N/A   Mostly Cloudy
1:15 PM 33.8 °F 26.4 °F 27.9 °F 79% 30.17 in 7.0 mi South 9.2 mph - N/A   Mostly Cloudy
1:35 PM 33.8 °F 28.6 °F 27.3 °F 77% 30.16 in 7.0 mi SSE 5.8 mph - N/A   Scattered Clouds
1:55 PM 33.8 °F 27.7 °F 27.9 °F 79% 30.14 in 7.0 mi SE 6.9 mph - N/A   Mostly Cloudy
2:15 PM 33.8 °F 27.0 °F 28.6 °F 81% 30.14 in 7.0 mi SE 8.1 mph - N/A   Scattered Clouds
2:35 PM 33.8 °F 27.7 °F 29.1 °F 83% 30.14 in 7.0 mi SSE 6.9 mph - N/A   Scattered Clouds
2:55 PM 33.8 °F 29.6 °F 29.1 °F 83% 30.16 in 7.0 mi SSE 4.6 mph - N/A   Mostly Cloudy
3:15 PM 33.8 °F 27.7 °F 29.3 °F 84% 30.15 in 7.0 mi SSE 6.9 mph - N/A   Overcast
3:35 PM 33.8 °F 30.8 °F 29.7 °F 85% 30.14 in 7.0 mi ESE 3.5 mph - N/A   Scattered Clouds
3:55 PM 33.8 °F 29.6 °F 29.7 °F 85% 30.13 in 10.0 mi East 4.6 mph - N/A   Scattered Clouds
4:15 PM 33.8 °F 28.6 °F 29.3 °F 84% 30.12 in 7.0 mi ESE 5.8 mph - N/A   Scattered Clouds
4:35 PM 33.8 °F 27.7 °F 30.0 °F 86% 30.11 in 7.0 mi East 6.9 mph - N/A   Scattered Clouds
4:55 PM 33.8 °F 28.6 °F 30.0 °F 86% 30.11 in 7.0 mi East 5.8 mph - N/A   Mostly Cloudy
5:15 PM 33.8 °F 28.6 °F 30.6 °F 88% 30.10 in 7.0 mi East 5.8 mph - N/A   Overcast
5:35 PM 33.8 °F 27.7 °F 30.6 °F 88% 30.09 in 7.0 mi East 6.9 mph - N/A   Overcast
5:55 PM 33.8 °F 27.0 °F 30.2 °F 87% 30.09 in 10.0 mi East 8.1 mph - N/A   Overcast
6:15 PM 33.8 °F 27.7 °F 30.6 °F 88% 30.09 in 7.0 mi East 6.9 mph - N/A   Overcast
6:35 PM 33.8 °F 28.6 °F 30.2 °F 87% 30.09 in 10.0 mi East 5.8 mph - N/A   Overcast
6:55 PM 33.8 °F 26.4 °F 30.6 °F 88% 30.09 in 7.0 mi ESE 9.2 mph - N/A   Overcast
7:15 PM 34.3 °F 28.4 °F 30.9 °F 87% 30.09 in 10.0 mi ESE 6.9 mph - N/A   Overcast
7:35 PM 36.1 °F 29.9 °F 32.0 °F 85% 30.09 in 10.0 mi ESE 8.1 mph - N/A   Overcast
7:55 PM 36.1 °F 31.4 °F 32.0 °F 85% 30.09 in 10.0 mi East 5.8 mph - N/A   Mostly Cloudy
8:15 PM 36.1 °F 31.4 °F 32.2 °F 86% 30.09 in 10.0 mi ESE 5.8 mph - N/A   Overcast
8:35 PM 36.1 °F 29.3 °F 32.0 °F 85% 30.07 in 10.0 mi ESE 9.2 mph - N/A   Overcast
8:55 PM 36.1 °F 29.3 °F 32.0 °F 85% 30.06 in 10.0 mi East 9.2 mph - N/A   Mostly Cloudy
9:15 PM 36.1 °F 28.2 °F 32.0 °F 85% 30.07 in 10.0 mi ESE 11.5 mph - N/A   Overcast
9:35 PM 36.3 °F 28.9 °F 32.0 °F 84% 30.07 in 10.0 mi ESE 10.4 mph - N/A   Mostly Cloudy
9:55 PM 37.8 °F 29.8 °F 33.1 °F 83% 30.07 in 10.0 mi ESE 12.7 mph - N/A   Scattered Clouds
10:15 PM 36.1 °F 28.7 °F 32.0 °F 85% 30.06 in 10.0 mi SE 10.4 mph - N/A   Clear
10:35 PM 36.1 °F 29.3 °F 32.0 °F 85% 30.06 in 10.0 mi ESE 9.2 mph - N/A   Mostly Cloudy
10:55 PM 36.1 °F 29.9 °F 32.0 °F 85% 30.06 in 10.0 mi ESE 8.1 mph - N/A   Mostly Cloudy
11:15 PM 36.1 °F 28.7 °F 32.0 °F 85% 30.06 in 10.0 mi SE 10.4 mph - N/A   Mostly Cloudy
11:35 PM 36.1 °F 28.7 °F 32.0 °F 85% 30.06 in 10.0 mi SE 10.4 mph - N/A   Scattered Clouds
11:55 PM 36.1 °F 28.7 °F 32.0 °F 85% 30.06 in 10.0 mi SE 10.4 mph - N/A   Clear